Location: Grasslands National Park East Block
(49.0708°N, 106.5295°W)
Time: 13:09:15
(UTC-06:00)

SR - Pass Details

Date: 21 October 2019
Orbit: 574 x 882 km, 66.7° (Epoch: 11 November)

Event Time Altitude Azimuth Distance (km) Brightness Sun altitude
Exits shadow 03:30:02 13° 0° (N) 2,263 ? -39.4°
Maximum altitude 03:30:11 13° 2° (N) 2,264 ? -39.4°
Drops below altitude 10° 03:32:50 10° 29° (NNE) 2,508 ? -39.0°
Sets 03:36:56 0° 56° (NE) 3,477 ? -38.4°
